Current weather by "City, St" or "zip code"  
 
Advertise Here

Current Conditions: Cairns Army Air Field / Ozark, AL

A Few Clouds


57.0 F

Last Updated on Mar 6 2021, 12:56 am CST
Humidity: 35%
Wind Speed: NE 12.7 mph
Barometer 30.02 in
Dewpoint: 30.0 F
Visibility: 10.00 mi
Precip: --
Heat Index: NA
Wind Chill: 54 F
Current conditions at:

Cairns Army Air Field / Ozark, AL (KOZR)

Lat: 31.27672 Lon: 85.71099

Local Radar Image active severe weather and emergency alerts image image weather storm and storm spotter reports image weather observation monitoring service image
Local
Radar
Active
Alerts
Storm Reports Obs
Monitoring

Sign-up For Email & Text Message Weather Alert Notification Services


Advertise Here

Observation History for Cairns Army Air Field / Ozark, AL


Time Wind
(mph)
Vis
(mi)
Weather Precip (in) Temperature (F) Relative
Humidity
Wind
Chill
(F)
Heat
Index
(F)
Pressure
Air Dwpt altimeter
(in)
sea level
(mb)
Rmks
12:56 am CST NE 12.7 10.00 A Few Clouds -- 57.0 30.0 35% 54 NA 30.02 1016.7
11:56 pm CST N 9.2 10.00 Mostly Cloudy -- 58.0 34.5 41% 56 NA 30.04 1017.3
10:56 pm CST N 5.8 10.00 A Few Clouds -- 57.0 37.4 47% 56 NA 30.04 1017.4
9:56 pm CST N 4.6 10.00 Fair -- 58.0 39.9 50% 58 NA 30.04 1017.4
8:56 pm CST N 5.8 10.00 Partly Cloudy -- 58.0 40.6 53% 57 NA 30.01 1016.4
7:56 pm CST E 6.9 10.00 Partly Cloudy -- 57.0 41.9 57% 56 NA 29.99 1015.8
6:56 pm CST W 4.6 7.00 Partly Cloudy -- 58.0 43.0 57% 58 NA 30.04 1017.5
5:56 pm CST N 0.0 10.00 A Few Clouds -- 63.0 34.5 34% NA NA 30.02 1016.8
4:56 pm CST SW 3.5 4.00 A Few Clouds with Haze -- 67.0 34.2 29% NA NA 30.01 1016.4
3:56 pm CST N 0.0 10.00 Fair -- 70.0 30.4 23% NA NA 30.00 1016.1
2:56 pm CST E 3.5 10.00 Fair -- 70.0 31.3 24% NA NA 29.99 1015.8
1:56 pm CST E 5.8 10.00 Fair -- 70.0 31.3 24% NA NA 29.99 1015.7
12:56 pm CST N 0.0 10.00 Partly Cloudy -- 69.0 32.0 25% NA NA 30.02 1016.7
11:56 am CST NE 8.1 10.00 Mostly Cloudy -- 68.0 32.0 26% NA NA 30.05 1017.8
10:56 am CST NE 10.4 10.00 Mostly Cloudy -- 68.0 30.6 25% NA NA 30.07 1018.4
9:56 am CST NE 11.5 10.00 A Few Clouds -- 66.0 34.2 31% NA NA 30.08 1018.8
8:56 am CST NE 10.4 10.00 Fair -- 59.0 34.7 40% 57 NA 30.10 1019.5
7:56 am CST NE 5.8 10.00 Fair -- 54.0 36.1 50% 53 NA 30.08 1018.8
6:56 am CST N 4.6 10.00 Fair -- 45.0 38.8 79% 43 NA 30.08 1018.8
5:56 am CST NE 5.8 10.00 Fair -- 47.0 35.8 66% 44 NA 30.06 1018.1
4:56 am CST NE 8.1 10.00 Fair -- 44.0 36.3 73% 39 NA 30.04 1017.4
3:56 am CST N 4.6 10.00 Fair -- 46.0 37.9 73% 44 NA 30.03 1017.1
2:56 am CST N 0.0 10.00 Fair -- 42.0 37.8 85% NA NA 30.03 1017.1
1:56 am CST N 0.0 10.00 Fair -- 48.0 37.6 67% NA NA 30.03 1017.1

Regional Weather Observation


SCHELL AHP, AL (KSXS)

A Few Clouds
56.0 F

Fort Rucker, Lowe Army Heliport, AL (KLOR)

Overcast
56.0 F

Cairns Army Air Field / Ozark, AL (KOZR)

A Few Clouds
57.0 F

Hanchey AHP / Ozark, AL (KHEY)

Overcast
58.0 F

Troy, Troy Municipal Airport, AL (KTOI)

Mostly Cloudy
56.0 F

Dothan, Dothan Regional Airport, AL (KDHN)

Mostly Cloudy
56.0 F
Advertise Here

Advertise Here